Regional Weather Roundup
Issued by NWS Wilmington, NC

Home | Current Version | Previous Version | Text Only | Print | Product List | Glossary On
Versions: 1 2 3 4 5 6 7 8 9 10 11 12 13 14 15 16 17 18 19 20 21 22 23 24 25 26 27 28 29 30 31 32 33 34 35 36 37 38 39 40 41 42 43 44 45 46 47 48 49 50
000
ASUS42 KILM 220613
RWRILM
RWRILM
REGIONAL HOURLY WEATHER ROUNDUP
NATIONAL WEATHER SERVICE WILMINGTON NC
100 AM EST WED NOV 22 2017

NOTE: "FAIR" INDICATES FEW OR NO CLOUDS BELOW 12,000 FEET WITH NO
SIGNIFICANT WEATHER AND/OR OBSTRUCTIONS TO VISIBILITY.

...............WFO WILMINGTON COUNTY WARNING AREA...............

......COASTAL NC AND SC COUNTIES......

CITY           SKY/WX    TMP DP  RH WIND       PRES   REMARKS
WILMINGTON     LGT RAIN  62  61  96 CALM      29.96F
N MYRTLE BEACH LGT RAIN  61  60  97 W7        29.95F
MYRTLE BEACH   LGT RAIN  61  60  97 W5        29.98F FOG

......INLAND NC AND SC COUNTIES.......

CITY           SKY/WX    TMP DP  RH WIND       PRES   REMARKS
LUMBERTON      RAIN      57  57 100 SE5       29.97F FOG
ELIZABETHTOWN  NOT AVBL
WHITEVILLE     LGT RAIN  58  57  97 CALM      29.95F
FLORENCE       CLOUDY    58  57  97 CALM      29.98S
DARLINGTON     LGT RAIN  56  55  97 CALM      29.98F
KINGSTREE      DRIZZLE   61  59  94 CALM      29.97F
HARTSVILLE     MOCLDY    55  52  88 CALM      29.98F
BENNETTSVILLE  RAIN      59  54  82 SW3       29.97F
CONWAY         CLOUDY    57  57 100 CALM      29.97F FOG
GEORGETOWN     DRIZZLE   59  59 100 CALM      29.97F
MARION         LGT RAIN  57  55  94 CALM      29.97F

....................REST OF NORTH CAROLINA......................

.........EASTERN NC.........

CITY           SKY/WX    TMP DP  RH WIND       PRES   REMARKS
CAPE HATTERAS  CLOUDY    66  63  90 SE12      29.98F
JACKSONVILLE   LGT RAIN  56  55  97 N3        29.97F
MOREHEAD CITY  CLOUDY    61  60  97 NE5       29.96F
KENANSVILLE    LGT RAIN  55  54  94 CALM      29.98F
NEW BERN       LGT RAIN  55  55 100 N3        29.98F
ELIZABETH CITY CLOUDY    61  58  90 SE8       30.00F

.........CENTRAL NC.........

CITY           SKY/WX    TMP DP  RH WIND       PRES   REMARKS
RALEIGH DURHAM CLOUDY    53  49  86 CALM      29.99F
ROCKY MOUNT    CLOUDY    53  52  96 CALM      29.99F
ROANOKE RAPIDS NOT AVBL
FAYETTEVILLE   CLOUDY    55  54  96 N6        29.97F
HOFFMAN        CLOUDY    52  52 100 CALM      29.96F

.........WESTERN NC.........

CITY           SKY/WX    TMP DP  RH WIND       PRES   REMARKS
CHARLOTTE      LGT RAIN  53  53 100 N6        30.01F
GREENSBORO     CLOUDY    49  49 100 CALM      30.00F
HICKORY        NOT AVBL
BOONE          NOT AVBL
ASHEVILLE      NOT AVBL

.....................REST OF SOUTH CAROLINA.....................

.........EASTERN SC.........

CITY           SKY/WX    TMP DP  RH WIND       PRES   REMARKS
CHARLESTON     CLOUDY    62  61  96 W5        29.95F
BEAUFORT MCAS  CLOUDY    63  63 100 W3        29.96F
HILTON HEAD    CLOUDY    63  63 100 W6        29.96F

.........CENTRAL SC.........

CITY           SKY/WX    TMP DP  RH WIND       PRES   REMARKS
COLUMBIA       CLOUDY    58  58 100 NW3       29.99S
ORANGEBURG     CLOUDY    58  56  93 CALM      29.99F
SUMTER SHAW    RAIN      57  54  90 N3        29.97F

.........WESTERN SC.........

CITY           SKY/WX    TMP DP  RH WIND       PRES   REMARKS
GREENVILLE     NOT AVBL
ROCK HILL      CLOUDY    53  52  96 N3        30.01S FOG
ANDERSON       CLOUDY    50  48  93 CALM      30.01F
CLEMSON        NOT AVBL
GREENWOOD      CLOUDY    46  46 100 N3        30.01F FOG


...................COASTAL AND OFFSHORE REPORTS..................

................LOCAL PIERS AND NC RESERVE................


STATION/POSITION TIME  SKY/WX   TEMP    WIND        PRES    VSBY
                                AIR SEA DIR/SP/G
                 (UTC)          (F)     (DEG/KT/KT) (MB)    (MI)
JOHNY MRCER PIER 0536            63 63   30/  5/  6 1014.5F
NC RESRV MASNBRO 0445            61     340/  1     1015.0
OCEAN CREST PIER NOT AVBL
SPRINGMAID  PIER 0536                               1014.0F


................COASTAL AND OFFSHORE BUOYS................


STATION/POSITION TIME  SKY/WX   TEMP    WIND        PRES    VSBY
                                AIR SEA DIR/SP/G
                 (UTC)          (F)     (DEG/KT/KT) (MB)    (MI)
DIMNDSHOAL 41025 0600            72 75  130/ 19/ 25 1015.0
CAPE LOOKOUT     0600                    70/  6/  7 1014.3F
ONSLOW BAY 41036 NOT AVBL
ONSLOW BAY 41064 0508            69 67   80/  4/  8 1014.8F
ONSLOW BAY 41159 0600               67                N/A
WVE H/P(F/S)=  4/ 6

MASNBO INL 41110 0559               64                N/A
WVE H/P(F/S)=  4/ 6

WILM HARBR 41108 0600               62                N/A
WVE H/P(F/S)=  4/ 7

27SE WRITB 41037 0508            64 68  120/  8/ 14 1014.6F
FRYING PAN 41013 0600            65 72  340/  8/ 14 1013.2
SUNST NRSH 41024 0508            60 61   20/  6/  8 1014.3F
CAPRS NRSH 41029 0508            60 62  220/ 10/ 14 1014.8F
EDISTO     41004 0600            68 74  260/ 14/ 19 1013.5


..........OFFSHORE BUOYS BEYOND 100 NM OFFSHORE...........
.....IN A TRIANGLE---HAT TO BERMUDA TO BAHAMAS TO HAT.....


STATION/POSITION TIME  SKY/WX   TEMP    WIND        PRES    VSBY
                                AIR SEA DIR/SP/G
                 (UTC)          (F)     (DEG/KT/KT) (MB)    (MI)
150E HAT   41001 NOT AVBL
W BERMUDA  41048 0600            75 76  130/ 23/ 31 1018.4
ATLANTIC S 41049 0550            77 79  100/ 17/ 25 1019.7F
WVE H/P(F/S)= 10/ 8 SWL H/P/D(F/S/D)=  5/330/10

E BAHAMAS  41046 0600            79 81  130/ 21/ 27 1014.4
NE BAHAMAS 41047 0550            71 79  150/ 16/ 27 1014.8F
WVE H/P(F/S)=  9/ 9 SWL H/P/D(F/S/D)=  5/ 80/ 9

120E CANVRL41010 NOT AVBL

END



USA.gov is the U.S. government's official web portal to all federal, state and local government web resources and services.